Regional Weather Roundup
Issued by NWS Kansas City/Pleasant Hill, MO

Home | Current Version | Previous Version | Graphics & Text | Print | Product List | Glossary Off
Versions: 1 2 3 4 5 6 7 8 9 10 11 12 13 14 15 16 17 18 19 20 21 22 23 24 25 26 27 28 29 30 31 32 33 34 35 36 37 38 39 40 41 42 43 44 45 46 47 48 49 50

000
ASUS43 KEAX 191311
RWREAX

WEATHER ROUNDUP FOR EASTERN KANSAS AND NORTHWEST MISSOURI
NATIONAL WEATHER SERVICE KANSAS CITY/PLEASANT HILL MO
800 AM CDT SUN APR 19 2015

KSZ040-057-103>105-MOZ028-029-037-043-191400-
...KANSAS CITY METROPOLITAN AREA...

CITY           SKY/WX    TMP DP  RH WIND       PRES   REMARKS
K.C. INTL      CLOUDY    54  53  97 N5        29.70S
K.C. DOWNTOWN  CLOUDY    56  53  90 VRB3      29.71R
LEES SUMMIT    CLOUDY    55  54  96 W9        29.70R
OLATHE - IXD   CLOUDY    53  53 100 NW5       29.72R
OLATHE - OJC   CLOUDY    54  53  97 NW6       29.71R
LAWRENCE       CLOUDY    54  52  93 NW7       29.72R

$$

MOZ001>008-011>017-020>025-030>033-038>040-044>046-053-054-191400-
...NORTHERN AND CENTRAL MISSOURI...

CITY           SKY/WX    TMP DP  RH WIND       PRES   REMARKS
ST. JOSEPH     CLOUDY    56  53  90 N5        29.72R
MOSBY          CLOUDY    57  57 100 W7        29.69R
WARRENSBURG    CLOUDY    59  57  94 E6        29.66F
WHITEMAN AFB   FOG       59  59 100 E6        29.66F VSB 3/4
CLINTON        MOSUNNY   55  55 100 E3        29.68F
SEDALIA        FOG       57  56  96 CALM      29.70F VSB 1/2
WARSAW         NOT AVBL
MARSHALL       SUNNY     59  59 100 E6        29.70F
CHILLICOTHE      N/A     59  57  93 NE3       29.71F
MOBERLY        MOSUNNY   59  55  88 CALM      29.71F FOG
KIRKSVILLE     HVY RAIN  58  57  97 CALM      29.72S FOG

$$

MOZ041-047>049-056>058-063>065-088>090-097-191400-
...EASTERN AND SOUTHERN MISSOURI...

CITY           SKY/WX    TMP DP  RH WIND       PRES   REMARKS
ST. LOUIS INTL CLOUDY    66  54  65 SE5       29.68F
SPIRIT OF STL  CLOUDY    62  58  86 CALM      29.67F
COLUMBIA       CLOUDY    57  56  96 S5        29.69F
JEFFERSON CITY CLOUDY    56  55  97 CALM      29.69F
HANNIBAL       FAIR      59  57  94 CALM      29.69F
ROLLA          LGT RAIN  59  57  93 W7        29.67F FOG
LEBANON        CLOUDY    57  55  94 NW5       29.70F FOG
OSAGE BEACH    CLOUDY    55  54  94 SE3       29.70S
SPRINGFIELD    SUNNY     56  52  86 NE6       29.68F
BRANSON        PTSUNNY   57  54  88 N7        29.70F
NEVADA         PTSUNNY   55  52  88 CALM      29.70S
JOPLIN         PTSUNNY   57  52  83 VRB5      29.69S
WEST PLAINS    CLOUDY    61  57  87 NW6       29.69S

$$

IAZ060-094-KSZ022-034>040-054-083-096-NEZ052-066-093-191400-
...KANSAS...SOUTHEAST NEBRASKA AND IOWA...

CITY           SKY/WX    TMP DP  RH WIND       PRES   REMARKS
TOPEKA         CLOUDY    54  53  97 W7        29.74R
MANHATTAN      CLOUDY    54  52  93 CALM      29.75S
EMPORIA        CLOUDY    52  51  97 NW5       29.74R FOG
CHANUTE        CLOUDY    54  54 100 NW8       29.73R
WICHITA        PTSUNNY   50  49  96 SW3       29.77R
OMAHA          RAIN      56  55  97 W9        29.72F FOG
LINCOLN        LGT RAIN  54  51  90 NW9       29.77R FOG
FALLS CITY     RAIN      54  52  93 W9        29.72S FOG
LAMONI         LGT RAIN  59  58  96 E3        29.72F FOG
DES MOINES     CLOUDY    59  57  93 SE5       29.73F FOG

$$



USA.gov is the U.S. government's official web portal to all federal, state and local government web resources and services.